Weather in Redmond

United States     47°40′11″N   122°07′21″W
temp.,
°C
wind,
m/s
gust,
m/s
humid.,
%
clouds,
%
prec.,
mm/h
press.,
hPa
HPBL,
m
25 may, wed
wed2523:00+10ese1189100 0.2 101617
02:00+10se1190100 0.0 101642
05:00+10se1288100 0.1 101656
08:00+11se2587100 0.0 1016273
11:00+13s367699 0.1 1017952
14:00+17ssw255897 0.3 10161444
17:00+20wsw344511 0.3 10151930
20:00+14n248198 0.0 1015119
26 may, thu
thu2623:00+8n1195100 0.0 101512
02:00+8nne1195100 0.0 101410
05:00+8ene0094100 0.0 101310
08:00+12nnw0076100 0.0 1012152
11:00+15nne1166100 0.0 1012280
14:00+14ssw1181100 0.0 101130
17:00+13ssw1296100 0.7 1011100
20:00+12sse2499100 2.8 1011209
27 may, fri
fri2723:00+11s1299100 3.6 101158
02:00+11sse269995 2.7 1013251
05:00+10sse2697100 3.3 1013182
08:00+12s3893100 0.3 1014747
11:00+15ssw4764100 0.6 10141322
14:00+16s4662100 1.1 10141420
17:00+15sse467184 2.3 1012872
20:00+11se248898 0.8 101191
28 may, sat
sat2823:00+8se119499 1.1 101111
02:00+8se0095100 0.0 101011
05:00+8w1196100 0.1 100817
08:00+8n1297100 0.0 1007149
11:00+10nnw2390100 0.1 1005383
14:00+13nnw4466100 0.1 10041044
17:00+9nw2698100 1.7 1004437
20:00+9sw1299100 5.0 100691
29 may, sun
sun2923:00+8sse1299100 8.2 100888
02:00+8s1698100 1.9 1009425
05:00+8s2798100 3.8 1010507
08:00+8ssw2597100 0.5 1011449
11:00+9s1595100 0.9 1012442
14:00+10ese1291100 0.1 1013250
17:00+10e2388100 0.1 1014194
20:00+10e1188100 0.1 101520